Skip Page Navigation
NASA JPL Caltech
NASA Logo - Jet Propulsion Laboratory + View the NASA Portal
+ Center for Near-Earth Object Studies
JPL Home Earth Solar System Stars & Galaxies Technology
JPL Solar System Dynamics
BODIES ORBITS EPHEMERIDES TOOLS PHYSICAL DATA DISCOVERY FAQ SITE MAP
IMPORTANT: The SSD Announcement email list is now available. Major changes are coming in the near future, including possible hostname and/or URL changes. To be notified of such changes, subscribe to this email list.

Please visit this page for more details.


JPL Small-Body Database Browser
Search: [ help ]  
183379 (2002 XL44)
Classification: Main-belt Asteroid          SPK-ID: 2183379
Ephemeris | Orbit Diagram | Orbital Elements | Mission Design | Physical Parameters | Discovery Circumstances ]

[ show orbit diagram ]
Orbital Elements at Epoch 2458600.5 (2019-Apr-27.0) TDB
Reference: JPL 12 (heliocentric ecliptic J2000)
 Element Value Uncertainty (1-sigma)   Units 
e .120645369319892 6.4542e-08  
a 2.425075731858026 1.7757e-08 au
q 2.132501574559307 1.5593e-07 au
i 4.802087431588472 4.6266e-06 deg
node 105.2618899329289 9.0921e-05 deg
peri 297.1985428064664 9.4436e-05 deg
M 143.1614028283494 2.6375e-05 deg
tp 2458051.958070481255
(2017-Oct-25.45807048)
9.981e-05 TDB
period 1379.387814909309
3.78
1.515e-05
4.148e-08
d
yr
n .2609853415470899 2.8665e-09 deg/d
Q 2.717649889156745 1.9899e-08 au
  Orbit Determination Parameters
   # obs. used (total)      266  
   data-arc span      8479 days (23.21 yr)  
   first obs. used      1996-02-18  
   last obs. used      2019-05-07  
   planetary ephem.      DE431  
   SB-pert. ephem.      SB431-N16  
   condition code      0  
   norm. resid. RMS      .65  
   source      ORB  
   producer      Otto Matic  
   solution date      2019-May-30 07:50:54  

Additional Information
 Earth MOID = 1.14587 au 
 Jupiter MOID = 2.64605 au 
 T_jup = 3.496 
[ show covariance matrix ]

Ephemeris | Orbit Diagram | Orbital Elements | Mission Design | Physical Parameters | Discovery Circumstances ]

Physical Parameter Table
Parameter Symbol Value Units Sigma Reference Notes
absolute magnitude H 16.9   n/a MPO433199  

183379 (2002 XL44)          Discovered 2002-Dec-07 by Ball, L. at Emerald Lane
Reference: 20080420/Numbers.arcLast Updated: 2008-04-23

Alternate Designations
 2002 XL44 = 2005 NQ15 
Ephemeris | Orbit Diagram | Orbital Elements | Mission Design | Physical Parameters | Discovery Circumstances ]
ABOUT SSD CREDITS/AWARDS PRIVACY/COPYRIGHT GLOSSARY LINKS
FirstGov
(server date/time)  
NASA Home Page
Site Manager:   Ryan S. Park
Webmaster  Alan B. Chamberlin